Regional Weather Roundup
Issued by NWS

Home | Current Version | Previous Version | Graphics & Text | Print | Product List | Glossary On
Versions: 1 2 3 4 5 6 7 8 9 10 11 12 13 14 15 16 17 18 19 20 21 22 23 24 25 26 27 28 29 30 31 32 33 34 35 36 37 38 39 40 41 42 43 44 45 46 47 48 49 50
000
ASUS43 KLOT 041821
RWRIL

ILLINOIS REGIONAL WEATHER ROUNDUP
NATIONAL WEATHER SERVICE CHICAGO/ROMEOVILLE IL
100 PM CDT TUE AUG 04 2015

NOTE: "FAIR" INDICATES FEW OR NO CLOUDS BELOW 12,000 FEET WITH NO
SIGNIFICANT WEATHER AND/OR OBSTRUCTIONS TO VISIBILITY.

* THESE STATIONS ARE NOT UNDER NWS QUALITY CONTROL. THEY ALSO MAY NOT
  REPORT WEATHER SUCH AS PRECIPITATION OR FOG.

ILZ001-002-007-009-015-016-024-041900-
NORTHWEST ILLINOIS

CITY           SKY/WX    TMP DP  RH WIND       PRES   REMARKS
MOLINE         CLOUDY    81  58  45 W14       30.01S HX  81
6HR MIN TEMP:  61; 6HR MAX TEMP:  82;

STERLING*      MOSUNNY   81  59  47 W14G20    29.99R HX  81
SAVANNA*       MOSUNNY   80  55  42 NW9       30.01R HX  80
$$

ILZ003-004-008-010-011-017-018-041900-
NORTH CENTRAL ILLINOIS

CITY           SKY/WX    TMP DP  RH WIND       PRES   REMARKS
ROCKFORD       CLOUDY    79  54  41 NW14      30.00S
6HR MIN TEMP:  58; 6HR MAX TEMP:  80;

FREEPORT*      CLOUDY    77  55  46 NW9       30.02S
ROCHELLE*      PTSUNNY   78  55  45 W12       30.00F
DE KALB*       CLOUDY    78  58  50 W15       30.00S
PERU*          MOSUNNY   78  53  41 NW9       30.01S
$$

ILZ005-006-012>014-019>023-041900-
NORTHEAST ILLINOIS

CITY           SKY/WX    TMP DP  RH WIND       PRES   REMARKS
CHICAGO-OHARE  PTSUNNY   79  52  38 W12       29.97S
6HR MIN TEMP:  63; 6HR MAX TEMP:  81;

CHICAGO-MIDWAY PTSUNNY   81  52  36 VRB5      29.96F HX  80
6HR MIN TEMP:  66; 6HR MAX TEMP:  82;

AURORA         PTSUNNY   79  55  43 W13       29.99S
6HR MIN TEMP:  57; 6HR MAX TEMP:  80;

LANSING*       MOSUNNY   79  52  38 W12       29.98S
JOLIET*        PTSUNNY   81  54  39 W9        29.99S HX  80
WAUKEGAN       MOSUNNY   79  55  43 VRB6G18   29.96S
6HR MIN TEMP:  63; 6HR MAX TEMP:  79;

DUPAGE AIRPORT PTSUNNY   78  54  43 NW12      29.98S
6HR MIN TEMP:  60; 6HR MAX TEMP:  79;

KANKAKEE*      PTSUNNY   80  57  46 NW10G16   30.00S HX  80
WHEELING       MOSUNNY   81  52  36 NW15G22   29.98S HX  80
6HR MIN TEMP:  64; 6HR MAX TEMP:  81;

MORRIS*        PTSUNNY   80  56  44 W13       29.98S HX  80
ROMEOVILLE*    PTSUNNY   79  51  36 NW14      29.98F
NORTHERLY ISL    N/A     79  45  29 NW12        N/A
$$

LMZ740>746-041900-
SOUTHERN LAKE MICHIGAN

STATION/POSITION SKY/WX   TEMP    WIND        PRES    VSBY  WAVE
                          AIR SEA DIR/SP/G                  HT/PER
                          (F)     (DEG/KT/KT) (MB)    (MI)  (FT/S)
HARRISON CRIB              77     300/ 11/ 14   N/A
BURNHAM HARBOR             80     290/  9/ 13   N/A
CALUMET HARBOR             79     230/  4/  9   N/A
BURNS HARBOR               75     330/  5/  6 1015.6S
MICHIGAN CITY              74     230/  3/  3   N/A
MICHIGAN CITY 6N           74 75  280/  2/  4   N/A           1/ 3
ST. JOSEPH                 72 74  280/  6/  6   N/A           1/ 3
$$

ILZ025>027-034>036-040-047-049-050-058-095>099-041900-
WEST-CENTRAL ILLINOIS

CITY           SKY/WX    TMP DP  RH WIND       PRES   REMARKS
QUINCY         CLOUDY    73  61  65 NE7       30.06R
GALESBURG*       N/A    N/A N/A N/A MISG        N/A
MACOMB*        CLOUDY    77  62  60 W8        30.08R
JACKSONVILLE*  CLOUDY    79  64  60 N5        30.04R HX  81
PITTSFIELD*    CLOUDY    77  65  65 N8        30.06R
$$

ILZ028>032-037-038-041>044-048-051>054-059>061-041900-
CENTRAL ILLINOIS

CITY           SKY/WX    TMP DP  RH WIND       PRES   REMARKS
PONTIAC        MOSUNNY   79  61  54 NW8       30.01S HX  80
BLOOMINGTON    PTSUNNY   80  59  48 VRB6      30.03S HX  81
DECATUR        CLOUDY    79  57  46 W3        30.03R HX  80
PEORIA         CLOUDY    82  57  42 NW7       30.03R HX  82
6HR MIN TEMP:  65; 6HR MAX TEMP:  83;

LACON*         PTSUNNY   78  59  51 W5        30.01R HX  80
LINCOLN*       CLOUDY    83  57  41 CALM      30.01S HX  82
SPRINGFIELD    CLOUDY    79  64  60 NW5       30.03S HX  81
6HR MIN TEMP:  65; 6HR MAX TEMP:  80;

TAYLORVILLE    CLOUDY    79  63  57 CALM      30.02S HX  80
$$

ILZ033-039-045-046-055>057-062-063-041900-
EAST-CENTRAL ILLINOIS

CITY           SKY/WX    TMP DP  RH WIND       PRES   REMARKS
CHAMPAIGN      PTSUNNY   79  58  48 W5        30.02S HX  80
DANVILLE*      PTSUNNY   79  61  53 W3        29.98S HX  80
RANTOUL*       MOSUNNY   82  58  43 W7        30.01R HX  82
MATTOON        CLOUDY    80  56  43 VRB5      30.01S HX  80
PARIS*         CLOUDY    79  61  55 NW5       30.02S HX  80
$$

ILZ079-100>102-041900-
SOUTHWEST ILLINOIS

CITY           SKY/WX    TMP DP  RH WIND       PRES   REMARKS
BELLEVILLE     SUNNY     87  74  64 VRB2      29.97S HX  96
CAHOKIA*       SUNNY     90  70  51 VRB3      29.98S HX  95
SPARTA*        MOSUNNY   88  73  60 SW9       29.99S HX  95
$$

ILZ064>066-069>071-074>076-080>082-084>086-088>090-092>094-041900-
SOUTH-CENTRAL ILLINOIS

CITY           SKY/WX    TMP DP  RH WIND       PRES   REMARKS
CARBONDALE     SUNNY     90  73  57 W8        29.97F HX  98
6HR MIN TEMP:  73; 6HR MAX TEMP:  90;

CAIRO*         MOSUNNY   91  74  56 SW9       29.98S HX 100
EFFINGHAM*     PTSUNNY   81  61  50 CALM      30.02F HX  82
MARION         MOSUNNY   91  75  59 SW12      29.98F HX 102
MT. VERNON     SUNNY     90  72  55 SW6       29.99S HX  96
CENTRALIA*     SUNNY     85  67  54 CALM      29.99S HX  88
SALEM*         MOSUNNY   87  67  50 CALM      30.00R HX  90
METROPOLIS*    MOSUNNY   90  76  64 SW5       29.99S HX 102
$$

ILZ067-068-072-073-078-083-087-091-041900-
SOUTHEAST ILLINOIS

CITY           SKY/WX    TMP DP  RH WIND       PRES   REMARKS
LAWRENCEVILLE  PTSUNNY   82  67  60 VRB3      30.00F HX  84
FLORA*         MOSUNNY   84  66  54 CALM      29.99F HX  86
FAIRFIELD*     SUNNY     86  71  61 SE3       29.97F HX  91
HARRISBURG*    SUNNY     91  74  57 W7        29.98F HX  99
ROBINSON*      PTSUNNY   81  63  54 CALM      30.01S HX  82
CARMI*         MOSUNNY   87  69  54 CALM      29.97S HX  90
$$

ABBREVIATIONS USED IN REMARKS
   TC - TEMPERATURE IN CELSIUS
  WCI - WIND CHILL INDEX
   HX - HEAT INDEX
  VSB - VISIBILITY
$$




USA.gov is the U.S. government's official web portal to all federal, state and local government web resources and services.